Meteo Giornale » Osservazioni meteo Gran Bretagna » Waddington
ore: 19:50 - Osservazioni Meteo Waddington
Lat. 53° 10' N Lon. 0° 31' W Alt. 68 metri s.l.m.
19 °C
Molto Nuvoloso
Temp. 24 Ore
12 °C
21 °C
Sud-Ovest
9.3 Km/h
Dew point 11 °C
Umidità 59 %
Visibilità 10 Km
Il sole sorge alle ore 06:12
Il sole tramonta alle ore 19:52
| Data e Ora | Cielo e Fenomeni | T °C | DP °C | Um. % | Pres. hPa | Vis. km | Vento km/h | |
|---|---|---|---|---|---|---|---|---|
| Oggi h: 19:50 | Molto Nuvoloso | 19 | 11 | 59 | 1018 | 10 | SO 9.3 | |
| Oggi h: 18:50 | Coperto | 20 | 11 | 56 | 1017 | 10 | O/SO 14.8 | |
| Oggi h: 18:20 | Coperto | 20 | 10 | 52 | 1017 | 10 | O 18.5 | |
| Oggi h: 17:50 | Molto Nuvoloso | 21 | 10 | 49 | 1017 | 10 | O/SO 22.2 | |
| Oggi h: 17:20 | Sereno | 21 | 10 | 49 | 1017 | 10 | O/SO 20.3 | |
| Oggi h: 16:50 | Sereno | 20 | 10 | 52 | 1017 | 10 | SO 14.8 | |
| Oggi h: 16:20 | Sereno | 20 | 10 | 52 | 1018 | 10 | O/SO 16.7 | |
| Oggi h: 15:50 | Molto Nuvoloso | 20 | 10 | 52 | 1018 | 10 | O/SO 18.5 | |
| Oggi h: 15:20 | Nuvoloso | 21 | 10 | 49 | 1018 | 10 | SO 18.5 | |
| Oggi h: 14:50 | Nuvoloso | 21 | 9 | 46 | 1018 | 10 | SO 20.3 | |
| Oggi h: 14:20 | Nuvoloso | 21 | 9 | 46 | 1018 | 10 | O/SO 24 | |
| Oggi h: 13:50 | Molto Nuvoloso | 21 | 9 | 46 | 1018 | 10 | SO 24 | |
| Oggi h: 13:20 | Nuvoloso | 20 | 10 | 52 | 1018 | 10 | SO 22.2 | |
| Oggi h: 12:50 | Nuvoloso | 20 | 9 | 49 | 1018 | 10 | O/SO 20.3 | |
| Oggi h: 12:20 | Nuvoloso | 20 | 9 | 49 | 1018 | 10 | SO 22.2 | |
| Oggi h: 11:50 | Nuvoloso | 20 | 9 | 49 | 1018 | 10 | O/SO 22.2 | |
| Oggi h: 11:20 | Molto Nuvoloso | 19 | 10 | 55 | 1018 | 10 | O/SO 18.5 | |
| Oggi h: 10:50 | Molto Nuvoloso | 18 | 10 | 59 | 1018 | 10 | SO 20.3 | |
| Oggi h: 10:20 | Molto Nuvoloso | 18 | 11 | 63 | 1019 | 10 | SO 18.5 | |
| Oggi h: 09:50 | Molto Nuvoloso | 17 | 11 | 67 | 1019 | 10 | SO 18.5 | |
| Oggi h: 09:20 | Sereno | 16 | 11 | 72 | 1019 | 10 | SO 16.7 | |
| Oggi h: 08:50 | Sereno | 15 | 11 | 76 | 1018 | 10 | SO 16.7 | |
| Oggi h: 08:20 | Sereno | 14 | 11 | 82 | 1018 | 10 | SO 16.7 | |
| Oggi h: 07:50 | Sereno | 12 | 11 | 93 | 1018 | 10 | S/SO 18.5 | |
| Oggi h: 07:20 | Sereno | 12 | 10 | 87 | 1018 | 10 | S/SO 18.5 | |
| Oggi h: 06:50 | Sereno | 12 | 10 | 87 | 1018 | 10 | SO 16.7 | |
| Oggi h: 06:20 | Sereno | 12 | 10 | 87 | 1018 | 10 | SO 16.7 | |
| Oggi h: 05:50 | Sereno | 12 | 10 | 87 | 1018 | 10 | SO 16.7 | |
| Oggi h: 05:20 | Nuvoloso | 12 | 10 | 87 | 1017 | 10 | SO 18.5 | |
| Oggi h: 04:50 | Poco Nuvoloso | 12 | 10 | 87 | 1017 | 10 | SO 16.7 | |
| Oggi h: 04:20 | Foschia | 13 | 11 | 87 | 1017 | 7 | SO 16.7 | |
| Oggi h: 03:50 | Sereno | 13 | 11 | 87 | 1017 | 10 | SO 13 | |
| Oggi h: 03:20 | Sereno | 13 | 11 | 87 | 1017 | 10 | SO 13 | |
| Oggi h: 02:50 | Poco Nuvoloso | 13 | 11 | 87 | 1017 | 10 | S/SO 13 | |
| Oggi h: 02:20 | Coperto | 14 | 11 | 82 | 1017 | 10 | SO 13 | |
| Oggi h: 01:50 | Coperto | 14 | 11 | 82 | 1017 | 10 | SO 11.1 | |
| Oggi h: 01:20 | Coperto | 14 | 11 | 82 | 1017 | 10 | SO 13 | |
| Oggi h: 00:50 | Molto Nuvoloso | 14 | 11 | 82 | 1017 | 10 | O/SO 11.1 | |
| Oggi h: 00:20 | Poco Nuvoloso | 14 | 11 | 82 | 1017 | 10 | O/SO 13 | |
| Ieri h: 23:50 | Sereno | 14 | 11 | 82 | 1017 | 10 | O 13 | |
| Ieri h: 23:20 | Poco Nuvoloso | 14 | 11 | 82 | 1017 | 10 | O 11.1 | |
| Ieri h: 22:50 | Nuvoloso | 14 | 11 | 82 | 1017 | 10 | O 9.3 | |
| Ieri h: 22:20 | Nuvoloso | 15 | 11 | 76 | 1016 | 10 | O 11.1 | |
| Ieri h: 21:50 | Sereno | 15 | 11 | 76 | 1016 | 10 | O 11.1 | |



